Wind_Speed
16 16 15 15 16 17 17 17 17 17 16 16 17 18 19 20 20 21 21 21 22 23 24 24 25 25 25 26 27 27 27 28 28 28 28 29 29 29 29 30 29 29 30
12 13 14 15 15 14 14 14 15 15 15 16 18 19 21 22 22 22 22 23 23 23 24 25 26 26 27 27 28 28 29 30 31 31 31 31 31 32 32 32 32 31 31
11 12 13 13 12 11 12 13 14 14 16 17 18 20 21 22 22 22 23 23 23 24 25 25 26 27 28 28 29 29 30 31 32 32 33 33 34 33 33 34 34 34 34
8 9 9 9 10 11 12 13 14 15 17 18 20 21 21 22 23 23 24 24 24 25 25 26 26 28 29 29 30 30 31 31 31 32 33 34 34 35 35 35 36 36 36
7 7 9 10 11 12 12 13 15 17 18 19 21 22 23 24 24 24 24 25 25 25 26 26 27 29 30 30 31 31 32 32 32 33 34 34 34 35 36 36 36 37 37
7 8 9 11 12 13 13 15 16 18 19 20 22 23 24 24 24 25 25 25 26 26 26 27 28 29 30 30 31 31 32 33 33 34 35 35 35 36 36 36 36 37 37
9 10 10 11 13 14 15 17 18 19 21 22 23 24 25 25 25 25 26 27 27 28 28 29 29 30 30 31 31 31 32 33 34 34 35 36 36 37 38 38 37 38 38
10 10 11 13 14 15 16 18 19 21 22 23 23 24 25 25 26 27 27 28 29 30 30 31 31 31 31 31 32 32 33 33 34 35 36 37 37 38 39 40 40 40 39
11 12 13 14 15 17 18 19 20 21 22 23 24 25 26 27 27 28 28 29 30 31 31 31 32 32 32 32 32 33 33 34 35 36 37 38 38 39 40 40 41 41 41
13 14 14 16 17 18 19 20 21 22 23 24 25 26 27 27 27 28 29 30 31 31 32 32 32 32 32 33 33 34 34 35 35 36 37 38 39 40 40 41 42 42 42
13 13 14 16 17 18 19 20 21 22 23 24 26 27 28 28 28 29 29 30 31 32 32 32 33 33 32 33 33 34 34 34 35 36 36 37 38 39 40 41 41 42 42
14 14 15 16 18 19 20 21 21 23 24 25 26 27 28 29 29 30 30 31 32 33 33 34 34 33 33 34 34 33 33 34 34 35 35 35 36 38 39 40 41 41 42
14 15 16 17 18 19 20 21 22 23 25 26 27 28 29 30 31 32 33 33 34 35 35 35 34 34 34 34 34 33 33 33 33 34 34 34 35 35 36 37 39 40 41
14 15 16 17 19 19 20 21 22 24 26 27 28 29 31 32 32 34 34 35 36 36 36 35 35 34 34 34 33 33 32 32 32 32 33 33 34 34 35 36 37 38 39
14 15 17 18 19 20 20 22 23 25 27 28 29 31 32 33 34 35 36 36 37 37 36 36 36 35 35 34 33 32 32 31 31 31 31 31 32 33 34 35 36 37 38
15 16 17 18 19 20 21 23 24 25 27 28 30 31 32 34 35 36 37 37 37 37 37 37 36 36 35 33 32 32 31 30 30 29 29 30 30 31 32 34 35 36 37
16 17 18 19 20 21 22 24 25 26 28 29 31 32 33 35 36 38 38 38 38 38 38 37 36 35 34 34 32 31 30 29 29 28 28 28 28 28 30 32 33 35 37
17 18 19 20 21 22 23 24 25 27 29 30 32 33 34 36 37 38 39 39 39 39 38 38 37 35 34 33 32 31 29 29 28 28 27 27 27 27 28 29 30 32 35
18 19 20 21 22 23 24 26 27 29 30 32 33 35 36 37 38 39 39 39 40 39 39 38 37 35 34 33 32 31 30 29 28 27 26 26 26 26 27 29 30 31 33
19 20 21 22 23 24 25 27 28 29 31 33 34 36 37 38 39 40 40 40 40 40 40 38 37 35 34 33 32 31 29 28 27 26 26 26 26 26 27 28 29 31 32
20 21 22 23 24 25 27 28 29 30 32 33 35 37 38 38 39 40 40 41 41 41 40 38 36 35 34 33 31 30 29 28 27 26 26 26 26 26 27 28 29 30 31
22 22 23 24 25 27 28 29 30 32 33 34 36 37 38 39 40 40 41 41 41 40 39 38 36 34 34 33 32 30 30 29 27 26 26 26 25 26 26 27 28 29 30
23 23 24 25 26 28 29 30 31 32 33 35 36 37 39 40 40 41 41 41 41 40 39 37 36 35 34 33 32 30 29 28 26 26 26 25 25 24 24 25 26 27 28
24 24 25 27 28 29 30 32 32 34 35 36 38 38 39 41 41 41 41 42 41 40 39 37 36 35 34 32 31 29 28 26 25 25 25 24 23 22 22 22 22 24 25
25 26 27 28 30 31 32 33 33 35 36 38 39 39 40 41 41 41 42 42 41 40 38 37 36 35 33 31 30 29 27 26 25 24 23 23 21 20 19 19 19 20 21
27 28 29 30 31 33 34 34 35 36 38 39 39 39 40 41 42 42 42 41 41 40 38 37 36 34 32 30 29 28 26 26 25 24 22 21 20 19 18 17 17 17 17
Wind_Direction
282 284 287 290 290 291 292 298 302 306 306 307 307 307 306 306 305 304 303 300 297 296 293 292 288 285 282 279 276 275 273 270 267 266 264 262 261 258 256 256 255 253 249
280 284 290 292 294 296 300 305 310 311 313 314 312 310 310 309 308 306 304 303 300 297 294 292 289 286 283 280 278 275 273 271 269 266 264 263 262 259 257 256 256 254 251
284 289 298 301 302 306 310 314 317 318 321 321 318 315 313 311 310 308 306 304 302 299 297 294 291 288 285 283 280 277 274 272 270 267 265 263 262 261 258 256 255 254 252
301 295 303 314 323 324 324 327 328 325 325 324 321 319 318 316 314 312 310 307 305 302 299 297 294 291 288 285 282 279 276 273 270 269 267 264 262 260 258 257 255 253 253
319 319 327 329 329 329 330 330 331 330 329 326 324 323 321 319 317 315 313 311 309 306 304 301 297 293 290 287 284 280 277 275 272 269 267 265 262 260 259 257 255 253 252
345 340 335 333 333 335 333 335 333 332 331 329 327 326 325 323 320 318 316 314 312 309 307 304 301 297 293 290 286 282 279 276 274 271 269 266 262 260 259 257 255 253 251
349 344 342 340 339 339 337 335 333 332 332 331 330 329 327 325 322 320 318 316 314 312 310 307 303 300 296 292 289 286 282 278 276 273 270 267 264 260 258 256 255 253 252
348 344 343 342 341 338 336 335 334 333 333 332 331 330 329 327 325 322 320 318 316 314 312 309 306 302 298 294 291 288 285 281 278 275 272 269 266 262 258 256 254 253 251
344 343 342 342 340 339 338 337 336 335 334 334 333 332 330 328 326 324 322 320 318 316 314 310 307 303 300 296 292 289 287 283 280 277 274 270 266 263 260 256 253 252 250
342 343 341 340 339 338 338 337 337 336 336 336 335 334 332 330 327 325 323 321 320 319 317 313 310 306 302 298 295 291 288 285 282 279 276 272 267 263 260 258 254 252 250
337 338 338 337 336 336 337 336 336 337 337 337 335 334 333 331 329 328 326 324 323 321 319 315 312 309 305 301 298 295 291 287 283 280 277 273 268 263 259 257 254 251 249
333 335 335 335 335 335 336 336 336 337 337 336 335 335 334 333 331 330 328 326 324 323 320 316 314 310 307 304 302 299 295 290 285 282 278 274 270 265 260 256 253 251 248
330 332 333 333 333 334 335 335 336 336 337 337 336 336 336 335 333 332 330 328 326 324 322 320 317 314 311 308 305 302 297 292 287 283 278 274 270 266 261 256 253 251 248
325 327 330 331 332 333 334 334 334 335 336 337 337 337 337 336 335 333 332 330 328 327 325 323 320 317 314 311 308 304 301 296 291 286 280 274 270 266 261 257 254 252 249
322 324 327 329 330 331 332 333 333 335 337 338 338 337 336 336 335 334 333 331 330 329 327 324 322 319 316 313 310 307 303 299 295 290 283 277 272 268 262 257 254 252 250
318 322 324 326 327 329 331 332 333 334 336 336 336 336 336 336 335 334 334 333 332 331 329 326 324 321 318 316 313 310 306 302 297 292 287 281 275 269 264 258 254 252 250
315 318 321 324 326 328 329 330 331 332 333 334 334 334 334 335 335 335 334 333 333 332 330 328 326 323 320 318 315 313 309 305 300 295 289 284 279 273 267 260 255 252 250
311 315 319 322 323 325 327 329 329 330 332 333 334 333 333 334 334 334 334 334 333 333 331 329 327 325 322 319 317 315 311 307 303 298 292 286 280 276 270 264 258 254 250
309 313 317 319 321 323 325 326 327 328 330 331 332 333 333 333 334 334 335 334 334 334 332 330 328 326 324 321 319 317 314 309 305 300 295 289 283 278 273 267 262 257 252
308 311 314 316 318 321 322 324 326 327 328 330 331 332 332 333 334 334 334 334 334 333 333 332 329 327 325 323 321 319 316 313 309 303 298 293 286 280 274 269 264 258 254
305 308 310 312 314 318 321 322 323 325 326 327 329 330 331 332 333 334 333 333 333 333 333 332 330 328 327 325 322 320 318 314 311 307 302 297 290 283 276 271 266 260 254
304 306 309 311 313 316 318 321 322 322 323 324 326 328 330 331 332 333 333 333 333 333 333 332 330 329 328 326 324 321 319 316 313 310 306 301 295 288 281 274 268 261 255
302 304 307 309 312 315 317 319 321 323 323 323 325 327 329 330 331 331 332 333 333 332 332 333 332 330 329 327 326 324 321 318 316 313 309 305 299 293 287 280 272 264 258
302 303 306 309 311 314 315 316 319 322 323 323 324 326 328 329 330 331 332 333 333 333 333 332 332 332 331 329 328 327 326 323 319 317 313 309 304 299 293 284 275 267 260
300 303 305 307 310 312 313 314 317 319 321 322 324 325 326 329 329 330 331 332 333 333 333 332 332 332 332 331 330 330 328 325 323 321 319 316 309 304 299 292 283 272 262
301 304 305 305 308 311 312 313 315 317 318 318 320 324 325 327 328 328 329 330 331 332 333 333 332 331 332 332 332 331 329 328 327 325 324 322 317 311 305 297 289 279 269
Height
5859 5859 5859 5859 5859 5859 5858 5857 5856 5854 5853 5851 5849 5848 5846 5845 5843 5841 5840 5838 5837 5835 5834 5833 5832 5831 5830 5830 5830 5830 5830 5830 5831 5832 5833 5834 5835 5836 5838 5840 5841 5844 5845
5856 5856 5857 5857 5856 5856 5855 5854 5853 5851 5850 5847 5845 5844 5842 5840 5839 5837 5835 5833 5831 5830 5828 5827 5826 5825 5824 5823 5823 5822 5822 5823 5823 5824 5825 5826 5828 5829 5830 5832 5834 5836 5838
5854 5854 5854 5854 5853 5853 5852 5851 5850 5848 5846 5844 5842 5840 5838 5836 5834 5832 5830 5828 5826 5824 5822 5820 5819 5818 5817 5816 5815 5815 5815 5815 5815 5815 5817 5818 5819 5820 5822 5824 5826 5827 5830
5851 5852 5852 5852 5851 5850 5849 5848 5847 5845 5843 5841 5839 5837 5835 5833 5830 5827 5825 5823 5821 5818 5816 5814 5813 5811 5809 5808 5807 5806 5806 5806 5806 5806 5807 5808 5809 5811 5813 5815 5817 5819 5821
5850 5850 5850 5850 5849 5848 5847 5846 5844 5843 5840 5838 5836 5833 5830 5828 5825 5822 5820 5817 5815 5812 5810 5808 5806 5803 5802 5800 5799 5798 5797 5797 5797 5797 5798 5799 5800 5801 5803 5805 5807 5810 5812
5850 5849 5849 5848 5847 5846 5845 5844 5842 5840 5837 5835 5832 5829 5826 5823 5820 5817 5814 5811 5809 5806 5804 5801 5799 5796 5794 5792 5790 5789 5788 5787 5787 5787 5788 5789 5790 5791 5793 5795 5797 5799 5802
5849 5849 5848 5847 5846 5844 5843 5841 5839 5837 5834 5832 5829 5825 5822 5819 5816 5812 5809 5806 5803 5800 5797 5794 5791 5788 5786 5784 5782 5780 5779 5778 5777 5777 5777 5778 5779 5780 5782 5784 5787 5789 5792
5848 5848 5847 5845 5844 5843 5841 5839 5837 5834 5831 5828 5825 5822 5818 5815 5811 5807 5804 5800 5797 5793 5790 5786 5783 5780 5778 5775 5773 5771 5769 5768 5767 5767 5767 5767 5768 5769 5771 5773 5776 5778 5781
5847 5846 5845 5843 5842 5840 5838 5836 5834 5831 5828 5825 5821 5818 5814 5810 5806 5802 5799 5795 5791 5787 5783 5779 5775 5772 5769 5766 5764 5762 5760 5758 5757 5756 5756 5756 5756 5757 5759 5761 5764 5767 5770
5846 5844 5843 5842 5840 5838 5836 5833 5831 5828 5825 5821 5817 5814 5810 5806 5802 5798 5794 5789 5785 5780 5776 5772 5768 5764 5761 5757 5754 5752 5750 5748 5746 5745 5744 5744 5744 5745 5747 5749 5751 5754 5758
5845 5843 5842 5840 5838 5836 5833 5831 5828 5825 5822 5818 5814 5810 5806 5802 5798 5793 5789 5784 5779 5774 5769 5764 5760 5756 5752 5748 5745 5742 5739 5737 5735 5733 5733 5732 5732 5733 5734 5736 5739 5742 5745
5843 5842 5840 5839 5836 5834 5831 5828 5825 5822 5819 5815 5811 5807 5802 5798 5793 5788 5783 5778 5773 5768 5762 5757 5752 5748 5743 5739 5735 5732 5729 5726 5724 5722 5721 5720 5720 5721 5722 5724 5726 5730 5733
5841 5840 5838 5836 5834 5832 5829 5826 5823 5820 5816 5812 5807 5803 5798 5793 5788 5783 5777 5772 5766 5760 5755 5749 5744 5739 5735 5730 5726 5722 5718 5716 5713 5711 5710 5709 5709 5709 5710 5712 5714 5717 5721
5840 5838 5837 5835 5832 5829 5827 5823 5820 5817 5813 5808 5803 5799 5794 5789 5783 5778 5772 5766 5760 5754 5747 5742 5736 5731 5726 5721 5717 5713 5709 5705 5703 5700 5699 5698 5698 5698 5699 5700 5703 5706 5709
5838 5837 5835 5832 5830 5827 5824 5821 5817 5814 5809 5805 5800 5795 5790 5784 5778 5772 5766 5760 5753 5747 5741 5735 5729 5723 5718 5713 5708 5704 5700 5696 5693 5690 5688 5687 5687 5687 5688 5689 5692 5695 5698
5836 5834 5832 5830 5827 5824 5821 5818 5814 5810 5806 5801 5796 5791 5785 5780 5773 5767 5761 5754 5747 5741 5734 5728 5721 5715 5710 5704 5700 5695 5691 5687 5684 5681 5679 5677 5677 5676 5677 5678 5681 5684 5687
5833 5831 5829 5827 5824 5821 5818 5814 5811 5807 5802 5797 5792 5786 5781 5775 5768 5762 5755 5748 5741 5734 5727 5721 5714 5708 5702 5696 5691 5686 5682 5678 5675 5672 5670 5668 5667 5666 5667 5668 5670 5672 5675
5830 5828 5826 5823 5821 5818 5814 5811 5807 5802 5798 5793 5787 5782 5776 5770 5763 5756 5749 5742 5735 5728 5721 5714 5707 5701 5695 5689 5684 5679 5674 5670 5667 5664 5661 5659 5658 5657 5657 5658 5659 5661 5664
5827 5825 5822 5820 5817 5814 5810 5806 5802 5798 5793 5788 5783 5777 5770 5764 5757 5750 5743 5736 5729 5721 5714 5707 5700 5694 5688 5682 5676 5671 5666 5662 5659 5655 5652 5650 5649 5648 5648 5648 5650 5651 5653
5823 5821 5818 5816 5813 5810 5806 5802 5798 5793 5789 5783 5777 5771 5765 5759 5752 5745 5737 5730 5723 5715 5708 5701 5694 5687 5681 5675 5669 5664 5659 5655 5651 5647 5644 5642 5640 5639 5638 5638 5639 5641 5643
5818 5816 5814 5811 5808 5805 5801 5797 5793 5788 5783 5778 5772 5766 5760 5753 5746 5739 5732 5724 5717 5709 5702 5695 5688 5681 5675 5669 5663 5658 5652 5648 5644 5640 5637 5634 5632 5630 5629 5629 5629 5630 5632
5814 5811 5809 5806 5803 5800 5796 5792 5788 5783 5778 5772 5767 5761 5754 5748 5741 5734 5726 5718 5711 5703 5696 5689 5682 5675 5669 5663 5657 5651 5646 5641 5637 5633 5629 5626 5623 5621 5620 5619 5619 5619 5621
5808 5806 5804 5801 5797 5794 5790 5786 5782 5777 5772 5766 5761 5755 5748 5742 5735 5728 5720 5713 5705 5698 5690 5683 5677 5670 5663 5657 5651 5645 5640 5635 5630 5626 5622 5619 5615 5613 5611 5609 5608 5609 5610
5802 5800 5797 5795 5791 5788 5784 5780 5775 5771 5766 5760 5754 5748 5743 5736 5729 5722 5714 5707 5699 5692 5684 5677 5671 5664 5657 5651 5645 5639 5634 5629 5624 5620 5616 5612 5608 5605 5602 5600 5600 5600 5601
5796 5794 5791 5788 5785 5781 5777 5773 5769 5764 5759 5754 5748 5742 5736 5729 5722 5715 5708 5701 5693 5686 5679 5672 5665 5659 5652 5646 5640 5634 5629 5624 5619 5615 5610 5606 5602 5599 5596 5594 5593 5592 5593
5789 5787 5784 5781 5778 5774 5770 5766 5762 5757 5752 5746 5741 5735 5729 5722 5716 5709 5702 5695 5688 5681 5673 5666 5660 5653 5647 5641 5636 5630 5624 5619 5614 5610 5605 5601 5598 5594 5591 5589 5587 5586 5586